Weather History for Christchurch, New Zealand

Change the Weather History Date:

Saturday, May 4, 2013

  Actual Average Record
Temperature  
Mean Temperature 54 °F -  
Max Temperature 64 °F 55 °F - ()
Min Temperature 44 °F 37 °F - ()
Degree Days  
Heating Degree Days 11    
Growing Degree Days 4 (Base 50)    
Moisture  
Dew Point 50 °F    
Average Humidity 81    
Maximum Humidity 100    
Minimum Humidity 63    
Precipitation  
Precipitation 0.00 in - - ()
Sea Level Pressure  
Sea Level Pressure 29.70 in    
Wind  
Wind Speed 10 mph ()    
Max Wind Speed 16 mph    
Max Gust Speed -    
Visibility 6.2 miles    
Events      
T = Trace of Precipitation, MM = Missing Value Source: Averaged Metar Reports

Daily Weather History Graph

Daily Weather History Graph

Search for Another Location

Airport:

Trip Planner

Search our weather history database for the weather conditions in past years. The results will help you decide how hot, cold, wet, or windy it might be!

Date:

Astronomy

May. 04, 2013 Rise Set
Actual Time 7:24 AM NZST 5:28 PM NZST
Civil Twilight 6:54 AM NZST 5:58 PM NZST
Nautical Twilight 6:20 AM NZST 6:32 PM NZST
Astronomical Twilight 5:46 AM NZST 7:05 PM NZST
Moon 1:04 AM NZST (5/4) 2:17 PM NZST (5/4)
Length of Visible Light 11h 04m
Length of Day
10h 03m
Waning Crescent, 34% of the Moon is Illuminated
May 4
Waning Crescent
May 10
New
May 18
First Quarter
May 25
Full
Jun 1
Last Quarter

Hourly Weather History & Observations

Time (NZST) Temp. Windchill Dew Point Humidity Pressure Visibility Wind Dir Wind Speed Gust Speed Precip Events Conditions
12:00 AM 50.0 °F - 48.2 °F 94% 29.98 in 6.2 mi ENE 11.5 mph - N/A   Partly Cloudy
1:00 AM 51.8 °F - 48.2 °F 88% 29.95 in 6.2 mi ENE 16.1 mph - N/A   Partly Cloudy
2:00 AM 51.8 °F - 48.2 °F 88% 29.95 in 6.2 mi ENE 13.8 mph - N/A   Partly Cloudy
3:00 AM 50.0 °F - 48.2 °F 94% 29.92 in 6.2 mi ENE 10.4 mph - N/A   Partly Cloudy
4:00 AM 46.4 °F 41.9 °F 44.6 °F 93% 29.89 in 6.2 mi NE 9.2 mph - N/A   Partly Cloudy
5:00 AM 44.6 °F 40.2 °F 44.6 °F 100% 29.86 in 6.2 mi NE 8.1 mph - N/A   Partly Cloudy
6:00 AM 48.2 °F - 46.4 °F 93% 29.83 in 6.2 mi ENE 9.2 mph - N/A   Partly Cloudy
7:00 AM 51.8 °F - 48.2 °F 88% 29.83 in 6.2 mi ENE 12.7 mph - N/A   Partly Cloudy
8:00 AM 51.8 °F - 50.0 °F 94% 29.80 in 6.2 mi East 13.8 mph - N/A   Partly Cloudy
9:00 AM 55.4 °F - 50.0 °F 82% 29.80 in 6.2 mi East 10.4 mph - N/A   Partly Cloudy
10:00 AM 59.0 °F - 51.8 °F 77% 29.77 in 6.2 mi ENE 13.8 mph - N/A   Partly Cloudy
11:00 AM 60.8 °F - 51.8 °F 72% 29.74 in 6.2 mi ENE 12.7 mph - N/A   Partly Cloudy
12:00 PM 64.4 °F - 53.6 °F 68% 29.68 in 6.2 mi East 13.8 mph - N/A   Partly Cloudy
1:00 PM 62.6 °F - 53.6 °F 72% 29.65 in 6.2 mi East 12.7 mph - N/A   Partly Cloudy
2:00 PM 64.4 °F - 53.6 °F 68% 29.59 in 6.2 mi ENE 12.7 mph - N/A   Partly Cloudy
3:00 PM 60.8 °F - 53.6 °F 77% 29.59 in 6.2 mi East 10.4 mph - N/A   Partly Cloudy
4:00 PM 60.8 °F - 53.6 °F 77% 29.56 in 6.2 mi East 11.5 mph - N/A   Partly Cloudy
5:00 PM 60.8 °F - 53.6 °F 77% 29.53 in 6.2 mi East 6.9 mph - N/A   Mostly Cloudy
6:00 PM 60.8 °F - 53.6 °F 77% 29.50 in 6.2 mi East 8.1 mph - N/A   Partly Cloudy
7:00 PM 60.8 °F - 51.8 °F 72% 29.50 in 6.2 mi East 8.1 mph - N/A   Partly Cloudy
8:00 PM 62.6 °F - 50.0 °F 63% 29.47 in 6.2 mi NNE 8.1 mph - N/A   Partly Cloudy
9:00 PM 57.2 °F - 48.2 °F 72% 29.47 in 6.2 mi NNE 8.1 mph - N/A   Partly Cloudy
10:00 PM 57.2 °F - 48.2 °F 72% 29.44 in - East 6.9 mph - N/A   Clear
11:00 PM 53.6 °F - 50.0 °F 88% 29.42 in - East 6.9 mph - N/A   Clear